Flag for Germany Weather past 2 weeks in Alfeld (Leine), Lower Saxony, Germany

Now
21 °F

Clear.


Feels Like: 10 °F
Forecast: 20 / 34 °F
Wind: 10 mph from Northeast

Location: Hannover

Current Time: Dec 28, 2014 at 3:32:20 AM

Latest Report: Dec 28, 2014 at 2:50 AM


Visibility: 10 mi

Pressure: 29.98 "Hg

Humidity: 93%

Dew point: 19 °F

Location of Alfeld (Leine)Location

Historic Weather in Alfeld (Leine) — Graph

°F

Alfeld (Leine) temperature yesterday

Maximum temperature yesterday: 32 °F (at 1:20 PM)
Minimum temperature yesterday: 25 °F (at 11:20 PM)
Average temperature yesterday: 29 °F

Past Weeks' High & Low Weather Summary

 TemperatureHumidityPressure
High54 °F (Dec 18, 2:20 PM)100% (Dec 14, 7:20 AM)30.36 "Hg (Dec 14, 7:20 AM)
Low21 °F (Dec 28, 2:20 AM)66% (Dec 25, 3:50 PM)29.53 "Hg (Dec 17, 2:20 PM)
Average42 °F88%29.91 "Hg
* Reported Dec 13 2:20 AM — Dec 28 2:20 AM, Alfeld (Leine), Weather by CustomWeather, © 2014

Note: Actual official high and low records may vary slightly from our data, if they occured in-between our weather recording intervals... More about our weather records

Advertising

Alfeld (Leine) weather history for previous 24 hours

 ConditionsComfort  
Time TempWeatherWind HumidityBarometerVisibility
2:20 AM
Dec 28
21 °FPassing clouds.10 mph93%29.98 "HgN/A
1:50 AM23 °FPassing clouds.13 mph86%29.95 "HgN/A
1:20 AM23 °FPassing clouds.15 mph86%29.92 "HgN/A
12:50 AM23 °FPassing clouds.14 mph93%29.92 "HgN/A
12:20 AM25 °FPassing clouds.14 mph86%29.89 "HgN/A
11:50 PM
Dec 27
25 °FPassing clouds.15 mph86%29.89 "HgN/A
11:20 PM25 °FPassing clouds.14 mph86%29.86 "HgN/A
10:50 PM27 °FPassing clouds.17 mph80%29.86 "HgN/A
10:20 PM27 °FPassing clouds.18 mph80%29.83 "HgN/A
9:50 PM27 °FPassing clouds.18 mph80%29.83 "HgN/A
9:20 PM27 °FPassing clouds.17 mph80%29.83 "HgN/A
8:50 PM27 °FPassing clouds.16 mph86%29.80 "HgN/A
8:20 PM27 °FPartly cloudy.18 mph86%29.77 "HgN/A
7:50 PM27 °FPartly cloudy.18 mph86%29.77 "HgN/A
7:20 PM27 °FPartly cloudy.20 mph86%29.74 "HgN/A
6:50 PM27 °FClear.18 mph86%29.74 "Hg10 mi
6:20 PM28 °FClear.17 mph86%29.74 "Hg10 mi
5:50 PM28 °FClear.17 mph80%29.71 "Hg10 mi
5:20 PM30 °FClear.17 mph80%29.71 "Hg10 mi
4:50 PM30 °FClear.17 mph80%29.71 "Hg10 mi
4:20 PM30 °FClear.16 mph80%29.68 "Hg10 mi
3:50 PM30 °FSunny.18 mph80%29.68 "Hg10 mi
3:20 PM30 °FSunny.16 mph80%29.68 "Hg10 mi
2:50 PM30 °FSunny.18 mph80%29.68 "Hg10 mi
2:20 PM32 °FBroken clouds.16 mph75%29.68 "HgN/A
1:50 PM32 °FPartly sunny.15 mph80%29.68 "HgN/A
1:20 PM32 °FPartly sunny.16 mph80%29.68 "HgN/A
12:50 PM30 °FPartly sunny.17 mph86%29.68 "HgN/A
12:20 PM30 °FPartly sunny.15 mph86%29.68 "HgN/A
11:50 AM30 °FPartly sunny.13 mph86%29.71 "HgN/A
11:20 AM30 °FPartly sunny.14 mph86%29.71 "HgN/A
10:50 AM30 °FPartly sunny.13 mph86%29.71 "HgN/A
10:20 AM30 °FPartly sunny.12 mph86%29.74 "HgN/A
9:50 AM30 °FPartly sunny.10 mph86%29.74 "HgN/A
9:20 AM30 °FPassing clouds.10 mph86%29.74 "HgN/A
8:50 AM28 °FSunny.10 mph93%29.77 "Hg10 mi
8:20 AM28 °FClear.12 mph93%29.77 "Hg10 mi
7:50 AM28 °FClear.12 mph93%29.80 "Hg10 mi
7:20 AM28 °FClear.8 mph93%29.80 "Hg10 mi
6:50 AM28 °FClear.8 mph93%29.83 "Hg10 mi
6:20 AM28 °FClear.8 mph93%29.83 "Hg10 mi
5:50 AM30 °FClear.9 mph93%29.86 "Hg10 mi
5:20 AM30 °FClear.8 mph93%29.89 "Hg10 mi
4:20 AM28 °FClear.8 mph100%29.95 "Hg10 mi
3:50 AM28 °FClear.7 mph93%29.98 "Hg10 mi
3:20 AM28 °FPassing clouds.3 mph93%30.01 "HgN/A
Weather by CustomWeather, © 2014

See weather overviewHow to use our weather pages